Location: Newark
(22.3060°N, 114.2134°E)
Time: 07:45:16
(UTC+00:00)

Vanguard 2 - Pass Details

Date: 06 August 2021
Orbit: 553 x 2937 km, 32.9° (Epoch: 24 September)

Event Time Altitude Azimuth Distance (km) Brightness Sun altitude
Rises 04:03:04 0° 264° (W) 4,381 11.3 81.7°
Reaches altitude 10° 04:07:12 10° 244° (WSW) 3,832 11.2 82.3°
Maximum altitude 04:13:08 17° 209° (SSW) 3,873 11.4 83.2°
Drops below altitude 10° 04:20:36 10° 175° (S) 4,988 11.9 84.0°
Sets 04:27:33 0° 158° (SSE) 6,414 12.3 84.3°
